Location: Greenwich
(51.4790°N, 0.0090°E)
Time: 23:51:42
(UTC+01:00)

Transit 4A - Pass Details

Date: 26 April 2024
Orbit: 871 x 971 km, 66.8° (Epoch: 17 May)

Event Time Altitude Azimuth Distance (km) Brightness Sun altitude
Rises 22:24:45 0° 313° (NW) 3,470 12.6 -16.7°
Reaches altitude 10° 22:28:02 10° 294° (WNW) 2,530 11.1 -17.0°
Maximum altitude 22:31:43 18° 255° (WSW) 2,046 9.9 -17.3°
Drops below altitude 10° 22:35:26 10° 215° (SW) 2,541 10.0 -17.7°
Enters shadow 22:37:09 - 204° (SSW) 3,001 10.3 -17.9°
